Regional Weather Roundup
Issued by NWS

Home | Current Version | Previous Version | Text Only | Print | Product List | Glossary Off
Versions: 1 2 3 4 5 6 7 8 9 10 11 12 13 14 15 16 17 18 19 20 21 22 23 24 25 26 27

000
ASUS45 KSLC 231510
RWRUT

UTAH REGIONAL WEATHER ROUNDUP
NATIONAL WEATHER SERVICE SALT LAKE CITY UT
900 AM MDT WED APR 23 2014

UTZ001>011-023>025-231600-

NORTHERN UTAH

CITY           SKY/WX    TMP DP  RH WIND       PRES   REMARKS
DUGWAY         MOSUNNY   44  24  46 NW2       30.04R
HILL AFB       MOSUNNY   39  27  60 W5        30.00R
LOGAN          SUNNY     40  25  55 N6        29.99R
OGDEN          SUNNY     42  25  50 VRB3      30.00R
PROVO AIRPORT  NOT AVBL
SALT LAKE CITY MOSUNNY   43  26  51 NW14      30.00R
VERNAL         PTSUNNY   44  23  43 S5        29.88R
WENDOVER       SUNNY     45  16  31 NW14      30.03S
HEBER CITY     MOSUNNY   39  19  45 N12       29.96R WCI  32
WEST JORDAN    SUNNY     43  27  52 NW20      30.01R

$$

UTZ012>022-026-027-231600-

SOUTHERN UTAH

CITY           SKY/WX    TMP DP  RH WIND       PRES   REMARKS
BRYCE CANYON   CLOUDY    33  22  63 N12       29.95R WCI  24
CEDAR CITY     PTSUNNY   42  25  50 N10       29.96R
MILFORD        PTSUNNY   43  27  53 N14       30.00R
MOAB/CYNLANDS  SUNNY     52  20  28 W15       29.86R
PRICE          CLOUDY    40  16  37 NW12      29.95R WCI  33
ST GEORGE      MOSUNNY   57  21  24 SW6       29.92R

$$

REGIONAL REPORTS     COLORADO/ARIZONA

CITY           SKY/WX    TMP DP  RH WIND       PRES   REMARKS
CRAIG, CO      CLOUDY    40  32  73 NW6       29.88R
GRAND JUNCTION MOSUNNY   52  21  29 NW23G31   29.84R
RIFLE          SUNNY     49  13  23 NW16G25   29.84R
MONTROSE       PTSUNNY   55  25  31 W14       29.83R
CORTEZ         SUNNY     57  23  26 SW10      29.86R
PAGE, AZ       CLOUDY    54  20  26 W9        29.87R
GRAND CANYON   CLOUDY    46   9  22 NW6       29.93R
KINGMAN        MOSUNNY   57   7  13 N15       29.91R
FLAGSTAFF      MOSUNNY   50  15  24 SW16      29.93R

$$

REGIONAL REPORTS    NEVADA/IDAHO/WYOMING

CITY           SKY/WX    TMP DP  RH WIND       PRES   REMARKS
LAS VEGAS, NV  PTSUNNY   63  13  14 NW20G28   29.89R
ELY            SUNNY     36  20  52 VRB3      30.05R
ELKO           SUNNY     32  27  81 SW5       30.05R WCI  27
POCATELLO, ID  FLURRIES  35  30  82 SW20      29.98R WCI  24
BURLEY         SUNNY     38  26  62 W18G24    30.00R WCI  28
EVANSTON, WY   MOSUNNY   30  22  72 W15       29.94R WCI  19
ROCK SPRINGS   CLOUDY    34  19  54 W28G35    29.89R WCI  21

$$



USA.gov is the U.S. government's official web portal to all federal, state and local government web resources and services.